OPS 7034 (TRANSIT 18)

Satellite information

Favourite Embed

Satellite Type and Status

PAYLOADIN ORBIT

Key statistics

Satellite OPS 7034 (TRANSIT 18) at a glance.

Uptime

21106

Days in orbit

Revolutions

≈ 13.5

Per day

Orbit

SSO

Sun Synchronous Orbit

Inclination

90.0

Latest

Satellite identification and parameters

Extended collection of information and parameters for OPS 7034 (TRANSIT 18).

Object identification

Identified? True

Debris? False

Object name: OPS 7034 (TRANSIT 18)

International designator: 1968-012A

Object number (NORAD): 3133

Object ID (CCSDS): 3133

Country: UNITED STATES OF AMERICA (US)

Current information (Y/N): Y

RCS size: LARGE

Orbital parameters

Period: 106.543 minutes

Inclination: 90.028 deg

SMA: 7444.64 km

Apoapsis: 1121.542 km

Periapsis: 1011.468 km

RAAN: 273.641 deg

Eccentricy: 0.00739283

Argument of periapsis: 166.7988 deg

Mean anomaly: 7.0693 deg

Mean motion: 13.51565835 rev/day

Mean motion (dot): 0.00000147 rev/day2

B* drag term: 0.00020755671 1/REarth

Two-line elements (TLE)

Creation date: Dec. 14, 2025, 3:07 a.m.

Reference frame: TEME

Reference center: EARTH

Epoch: Dec. 13, 2025, 1:03 p.m. UTC

TLE line 0: 0 OPS 7034 (TRANSIT 18)

TLE line 1: 1 03133U 68012A 25347.54439777 .00000147 00000-0 20756-3 0 9999

TLE line 2: 2 03133 90.0280 273.6410 0073928 166.7988 7.0693 13.51565835569296

Live tracking on map

Real-time ground track for satellite OPS 7034 (TRANSIT 18).

In-orbit conjunctions

There are no conjunctions computed for OPS 7034 (TRANSIT 18), at the moment. Check back to stay up to date, as we update our databases every day.

Go to all conjunctions

Associated space launch

The Transit-O series of satellites that closely followed the design of Transit 5C-1 were also called “Oscars” (Oscar is the phonetic alphabet for “O”, i. e., operational). They were also called NNS (Navy Navigation Satellite) or shortened NavSat.

OPS 7034 (TRANSIT 18) was lifted into orbit during the mission ‘Scout A | Transit-O 18’, on board a Scout A space rocket.

The launch took place on March 2, 1968, 3:55 a.m. from Space Launch Complex 5.

For more information about the launch, click the button.

Launch to space Scout A | Transit-O 18
Scout A | Transit-O 18

Agency: N/A

Status: Launch Successful

Launch date: March 2, 1968, 3:55 a.m. UTC

Rocket: Scout A

Launch pad: Space Launch Complex 5

Location: Vandenberg SFB, CA, USA

...

Latest news about this satellite

There are no fresh news available about this satellite. Check back as we update our databases every day.


Newsletter sign-up

Weekly statistics, charts and insights to help you stay on top of the space industry.